Zurück zum Katalog

STARLINK-11486

AktivKommunikationVLEO
NORAD 62467·PAYLOAD·🇺🇸 United States

Gestartet Dec 31, 2024 von Cape Canaveral Space Force Station

Loading…

Nächste Überflüge (nächste 24 Stunden)

TLE

AktuellSource: CelesTrak SupGP

Epoche: Sep 14, 2026, 20:48 UTC

1 62467C 24254F   26257.86715278  .00030146  00000+0  23448-3 0  2572
2 62467  43.0004 162.9951 0001564 259.5193 345.9319 15.70789808    19

Verfolge STARLINK-11486 in Echtzeit mit AllMySat

Download on the App Store